[[{"header":{"parameterUnit":"m.s-1","parameterCategory":1,"la1":30.2991,"la2":30.254,"lo1":-89.0895,"lo2":-89.0444,"dy":0.0017,"dx":0.0017,"nx":28,"ny":28,"refTime":"2024-04-30T09:00:00:Z","depth":0,"parameterNumber":2,"parameterNumberName":"U-component_of_WINDS"},"data":[0,0,0,0,0,0,0,0,0,0,0,0,0,0,0,0,0,0,0,0,0,0,0,0,0,0,0,0,0,0,0,0,0,0,0,0,0,0,0,0,0,0,0,0,0,0,0,0,0,0,0,0,0,0,0,0,0,0,-0.6255,-0.6255,0,-0.6232,-0.6232,-0.6232,-0.6189,-0.6189,-0.6188,-0.6187,-0.6163,-0.6163,-0.6163,0,0,0,0,0,0,0,0,0,0,0,0,0,-0.6264,-0.6264,-0.6255,-0.6255,-0.6255,-0.6232,-0.6232,-0.6232,-0.619,-0.6189,-0.6188,-0.6187,-0.6163,-0.6163,-0.6163,0,0,0,0,0,0,0,0,0,0,0,0,0,-0.6252,-0.6264,-0.6255,-0.6231,-0.6229,-0.6232,-0.6232,-0.6232,-0.619,-0.6189,-0.6187,-0.6186,-0.6163,-0.6163,-0.6163,-0.6189,0,0,-0.6164,-0.6164,0,0,0,0,0,0,0,0,-0.6253,-0.6252,-0.6235,-0.6233,-0.623,-0.6212,-0.6226,-0.6217,-0.619,-0.6205,-0.6187,-0.6186,-0.6181,-0.6179,-0.6177,-0.6188,-0.6187,-0.6164,-0.6164,-0.6164,-0.6164,0,0,0,0,0,0,0,-0.6254,-0.6253,-0.6246,-0.6235,-0.6232,-0.6222,-0.6219,-0.6224,-0.62,-0.6203,-0.62,-0.6198,-0.6179,-0.6177,-0.6177,-0.6186,-0.6164,-0.6164,-0.6164,-0.6164,-0.6217,-0.6218,0,0,0,0,0,0,-0.6258,-0.6254,-0.6247,-0.6245,-0.6239,-0.6222,-0.6219,-0.6219,-0.6199,-0.6195,-0.6199,-0.6196,-0.6178,-0.6176,-0.6176,-0.6204,-0.6164,-0.6164,-0.6164,-0.6216,-0.6217,-0.6219,0,0,0,0,0,0,-0.6258,-0.6258,-0.6248,-0.6249,-0.6247,-0.6223,-0.6224,-0.622,-0.6218,-0.6196,-0.6192,-0.6202,-0.6177,-0.6175,-0.6186,-0.6203,-0.6164,-0.6164,-0.6214,-0.6216,-0.6218,-0.6262,0,0,0,0,0,0,-0.6259,-0.6258,-0.6267,-0.6249,-0.6247,-0.6259,-0.6225,-0.622,-0.6218,-0.6214,-0.6198,-0.6194,-0.6176,-0.6186,-0.6186,-0.6203,-0.6165,-0.6213,-0.6215,-0.6217,-0.6259,-0.6265,-0.6271,0,0,0,0,0,-0.6259,-0.628,-0.6268,-0.6267,-0.6258,-0.626,-0.6258,-0.6237,-0.622,-0.6229,-0.6215,-0.6194,-0.6201,-0.6187,-0.6187,-0.6204,-0.6211,-0.6214,-0.6217,-0.6256,-0.6264,-0.6271,0,0,0,0,0,0,-0.6301,-0.6278,-0.6264,-0.628,-0.6272,-0.6252,-0.6263,-0.6246,-0.6242,-0.6239,-0.6212,-0.6209,-0.6223,-0.6215,-0.62,-0.6228,-0.6203,-0.6206,-0.6233,-0.624,-0.6246,-0.6247,-0.6165,0,0,0,0,0,-0.6312,-0.6315,-0.6295,-0.6311,-0.6308,-0.6287,-0.6286,-0.6271,-0.6262,-0.6258,-0.6245,-0.6237,-0.6238,-0.6238,-0.6238,-0.6258,-0.6254,-0.6269,-0.6275,-0.628,-0.6283,-0.6294,-0.6301,-0.6228,-0.6228,-0.6228,0,0,-0.6335,-0.6323,-0.6326,-0.6319,-0.6311,-0.6316,-0.6284,-0.629,-0.6293,-0.6259,-0.6268,-0.6259,-0.6248,-0.6264,-0.627,-0.6257,-0.6302,-0.6284,-0.6288,-0.6288,-0.6297,-0.6304,-0.631,-0.623,-0.623,-0.623,0,0,-0.6379,-0.637,-0.6382,-0.6375,-0.6364,-0.635,-0.6353,-0.6337,-0.6329,-0.6338,-0.6313,-0.6317,-0.6318,-0.6312,-0.6309,-0.6352,-0.6332,-0.6352,-0.6383,-0.6393,-0.6399,-0.6404,-0.642,-0.6426,-0.6355,-0.6355,-0.6355,0,-0.6408,-0.6414,-0.6391,-0.6399,-0.6396,-0.6367,-0.638,-0.6374,-0.6363,-0.6363,-0.6348,-0.635,-0.6341,-0.6355,-0.6366,-0.6364,-0.6367,-0.6354,-0.64,-0.6405,-0.6409,-0.6424,-0.643,-0.6358,-0.6357,-0.6357,-0.6357,0,-0.6451,-0.6455,-0.6467,-0.6458,-0.6457,-0.6467,-0.6446,-0.6448,-0.6433,-0.6421,-0.6431,-0.6419,-0.6416,-0.6418,-0.6403,-0.6431,-0.6423,-0.6405,-0.6379,-0.6419,-0.6432,-0.6438,-0.6361,-0.636,-0.636,-0.6359,0,0,-0.6519,-0.6498,-0.6503,-0.6499,-0.6485,-0.6488,-0.6497,-0.6494,-0.6497,-0.6491,-0.6498,-0.65,-0.6484,-0.648,-0.6465,-0.6474,-0.651,-0.6455,-0.6454,-0.6466,-0.654,-0.6554,-0.6561,-0.6497,-0.6498,-0.6499,-0.6541,0,-0.656,-0.6574,-0.6555,-0.6574,-0.6578,-0.6551,-0.6559,-0.6551,-0.654,-0.6542,-0.653,-0.6532,-0.651,-0.6508,-0.6517,-0.6504,-0.6524,-0.65,-0.6504,-0.6504,-0.6507,-0.6567,-0.6582,-0.6622,-0.6546,-0.6547,-0.6548,0,-0.6609,-0.6606,-0.6625,-0.6611,-0.6612,-0.662,-0.6616,-0.6618,-0.661,-0.6601,-0.6598,-0.658,-0.6588,-0.6564,-0.6576,-0.656,-0.6561,-0.6555,-0.6556,-0.6555,-0.6528,-0.6568,-0.6634,-0.664,-0.6556,-0.6555,-0.6554,0,-0.6657,-0.6658,-0.667,-0.6667,-0.6651,-0.6657,-0.6651,-0.6641,-0.6641,-0.6637,-0.6637,-0.6635,-0.6634,-0.6633,-0.6615,-0.6599,-0.6629,-0.6603,-0.6622,-0.6623,-0.6629,-0.6629,-0.6696,-0.663,-0.663,-0.663,-0.663,0,-0.6705,-0.6718,-0.6691,-0.6699,-0.6713,-0.6691,-0.6705,-0.6696,-0.6688,-0.6693,-0.667,-0.6675,-0.6651,-0.6654,-0.664,-0.6652,-0.6652,-0.6645,-0.6641,-0.6647,-0.6648,-0.6647,-0.6644,-0.6631,-0.6631,-0.6631,-0.6631,0,-0.6761,-0.6744,-0.6755,-0.6739,-0.6735,-0.6746,-0.6733,-0.6739,-0.6727,-0.6734,-0.6735,-0.6716,-0.6718,-0.67,-0.6699,-0.669,-0.6709,-0.67,-0.6712,-0.6709,-0.6729,-0.6728,-0.6798,-0.6806,-0.6735,-0.6736,-0.6736,0,-0.6792,-0.6802,-0.6787,-0.6789,-0.6784,-0.6787,-0.6787,-0.6766,-0.6767,-0.6759,-0.6766,-0.6767,-0.6766,-0.6772,-0.6758,-0.6758,-0.6749,-0.6773,-0.6748,-0.6754,-0.6749,-0.6749,-0.675,-0.6778,-0.6779,-0.678,-0.6781,0,-0.685,-0.6841,-0.6842,-0.684,-0.684,-0.6838,-0.6834,-0.6837,-0.6814,-0.6816,-0.6819,-0.6818,-0.6818,-0.6819,-0.6816,-0.681,-0.6792,-0.6789,-0.6793,-0.6799,-0.6806,-0.6803,-0.6726,-0.6787,-0.6786,-0.6786,-0.6786,-0.6785,-0.6894,-0.6902,-0.6893,-0.6895,-0.6889,-0.6886,-0.6892,-0.6881,-0.6883,-0.6881,-0.6868,-0.6873,-0.6865,-0.686,-0.6855,-0.6859,-0.6847,-0.6854,-0.6855,-0.6857,-0.6861,-0.6806,-0.6858,-0.6858,-0.6858,-0.6858,-0.6858,0,-0.6951,-0.6944,-0.6946,-0.6941,-0.6943,-0.6926,-0.6921,-0.6923,-0.6928,-0.6922,-0.6923,-0.6926,-0.6928,-0.6914,-0.6914,-0.692,-0.6912,-0.6921,-0.692,-0.6919,-0.6871,-0.6868,-0.6927,-0.6927,-0.6927,-0.6927,-0.6927,-0.6927,-0.698,-0.6992,-0.6983,-0.6992,-0.6985,-0.699,-0.6989,-0.6986,-0.6981,-0.6986,-0.6988,-0.6979,-0.6971,-0.697,-0.6971,-0.6967,-0.6968,-0.698,-0.6973,-0.6929,-0.6922,-0.6916,-0.6912,-0.698,-0.698,-0.702,-0.7021,-0.7021]},{"header":{"parameterUnit":"m.s-1","parameterCategory":1,"la1":30.2991,"la2":30.254,"lo1":-89.0895,"lo2":-89.0444,"dy":0.0017,"dx":0.0017,"nx":28,"ny":28,"refTime":"2024-04-30T09:00:00:Z","depth":0,"parameterNumber":3,"parameterNumberName":"V-component_of_WINDS"},"data":[0,0,0,0,0,0,0,0,0,0,0,0,0,0,0,0,0,0,0,0,0,0,0,0,0,0,0,0,0,0,0,0,0,0,0,0,0,0,0,0,0,0,0,0,0,0,0,0,0,0,0,0,0,0,0,0,0,0,2.9509,2.9509,0,2.9538,2.9538,2.9538,2.9545,2.9545,2.9545,2.9544,2.957,2.9571,2.9572,0,0,0,0,0,0,0,0,0,0,0,0,0,2.9452,2.9453,2.9508,2.9509,2.9509,2.9538,2.9538,2.9538,2.9545,2.9545,2.9545,2.9544,2.957,2.9571,2.9572,0,0,0,0,0,0,0,0,0,0,0,0,0,2.9478,2.9453,2.9508,2.9516,2.9517,2.9537,2.9538,2.9538,2.9545,2.9545,2.9545,2.9544,2.957,2.9571,2.9572,2.9586,0,0,2.9576,2.9577,0,0,0,0,0,0,0,0,2.9477,2.948,2.9515,2.9516,2.9517,2.9538,2.9527,2.9554,2.9545,2.9534,2.9544,2.9544,2.9559,2.9561,2.9567,2.9587,2.9588,2.9576,2.9577,2.9578,2.9578,0,0,0,0,0,0,0,2.9475,2.9479,2.952,2.9515,2.9516,2.9516,2.9519,2.9532,2.9548,2.9535,2.9536,2.9539,2.956,2.9566,2.9568,2.9589,2.9576,2.9577,2.9578,2.9579,2.9616,2.9616,0,0,0,0,0,0,2.9472,2.9477,2.9519,2.9521,2.9496,2.9517,2.9521,2.9531,2.9548,2.955,2.954,2.954,2.9564,2.9567,2.9569,2.9583,2.9578,2.9579,2.958,2.9615,2.9616,2.9616,0,0,0,0,0,0,2.9471,2.9476,2.9518,2.9499,2.9504,2.9518,2.953,2.9532,2.9538,2.9551,2.9553,2.9544,2.9564,2.9567,2.9581,2.9584,2.9579,2.9581,2.9615,2.9616,2.9616,2.9614,0,0,0,0,0,0,2.9469,2.9476,2.9483,2.9499,2.9505,2.9531,2.953,2.9533,2.9541,2.9541,2.9556,2.9558,2.9564,2.9579,2.9582,2.9586,2.9582,2.9615,2.9615,2.9616,2.9614,2.9614,2.9614,0,0,0,0,0,2.9467,2.9481,2.9483,2.9488,2.9515,2.9532,2.9535,2.9543,2.9541,2.9547,2.9555,2.9557,2.9583,2.958,2.9584,2.9588,2.9615,2.9615,2.9616,2.9613,2.9614,2.9614,0,0,0,0,0,0,2.9465,2.9484,2.9486,2.9506,2.9517,2.9533,2.9541,2.9544,2.9555,2.9555,2.9563,2.9566,2.9578,2.9585,2.9581,2.96,2.9599,2.96,2.9596,2.9596,2.9597,2.9594,2.9583,0,0,0,0,0,2.9467,2.948,2.9495,2.9511,2.9517,2.9528,2.9535,2.954,2.9551,2.9556,2.9565,2.9574,2.9584,2.959,2.9601,2.9614,2.9616,2.9619,2.9619,2.9619,2.962,2.9624,2.9625,2.9618,2.9617,2.9617,0,0,2.947,2.9482,2.9491,2.9511,2.952,2.9531,2.9532,2.9545,2.9552,2.9557,2.9571,2.9577,2.9587,2.96,2.9606,2.9606,2.9622,2.962,2.962,2.9621,2.9624,2.9625,2.9626,2.9618,2.9618,2.9618,0,0,2.9483,2.9495,2.9507,2.9516,2.9529,2.9536,2.9539,2.9553,2.9558,2.9571,2.9574,2.9582,2.96,2.9606,2.9612,2.9621,2.9623,2.9624,2.9626,2.963,2.9631,2.9631,2.9632,2.9633,2.9625,2.9625,2.9625,0,2.9486,2.9505,2.9513,2.9525,2.9532,2.9537,2.9548,2.9556,2.9572,2.9575,2.9575,2.9595,2.9603,2.9615,2.9617,2.9622,2.9623,2.9623,2.963,2.9631,2.9631,2.9632,2.9633,2.9625,2.9625,2.9625,2.9625,0,2.9506,2.9518,2.9526,2.9541,2.9549,2.9561,2.9569,2.9575,2.9578,2.9584,2.9595,2.9604,2.9614,2.9617,2.9621,2.9629,2.9628,2.9629,2.9628,2.9632,2.9633,2.9634,2.9625,2.9625,2.9625,2.9625,0,0,2.952,2.9537,2.9539,2.9544,2.9558,2.9566,2.9576,2.9587,2.9591,2.96,2.9607,2.962,2.9619,2.9625,2.9629,2.9633,2.9636,2.9632,2.9632,2.9631,2.9642,2.9641,2.9642,2.9637,2.9637,2.9637,2.9641,0,2.9532,2.9552,2.9557,2.9572,2.9582,2.9585,2.9592,2.96,2.9604,2.9611,2.9615,2.9624,2.9624,2.9627,2.9631,2.9635,2.9638,2.9635,2.9641,2.9641,2.9638,2.9643,2.9643,2.9646,2.9642,2.9642,2.9642,0,2.955,2.9559,2.9575,2.9584,2.9588,2.9595,2.9603,2.9611,2.9618,2.962,2.9625,2.9628,2.9635,2.9633,2.9641,2.9638,2.9641,2.9643,2.9643,2.9644,2.9642,2.9642,2.9648,2.9648,2.9643,2.9643,2.9643,0,2.9556,2.9572,2.9583,2.9587,2.9598,2.9602,2.9607,2.9614,2.9618,2.9625,2.9627,2.9634,2.9637,2.9641,2.9644,2.9643,2.9651,2.965,2.9652,2.9651,2.9653,2.9653,2.9658,2.9656,2.9656,2.9656,2.9656,0,2.9569,2.9578,2.9585,2.9592,2.96,2.9605,2.9613,2.9617,2.9623,2.9628,2.9631,2.9635,2.9639,2.9644,2.9646,2.9651,2.9652,2.9653,2.9653,2.9653,2.9652,2.9654,2.9653,2.9656,2.9656,2.9656,2.9656,0,2.9577,2.9582,2.9594,2.9602,2.9604,2.961,2.9616,2.9621,2.9624,2.9631,2.9632,2.9637,2.9642,2.9645,2.9652,2.9653,2.9658,2.9659,2.9656,2.9656,2.9656,2.9656,2.9662,2.9662,2.9661,2.9661,2.9661,0,2.9584,2.9591,2.9599,2.9603,2.9608,2.9614,2.9618,2.9622,2.9626,2.9632,2.9636,2.9641,2.9645,2.9652,2.9655,2.9659,2.9659,2.9661,2.966,2.9658,2.9657,2.9656,2.9656,2.9661,2.9661,2.9661,2.9661,0,2.9596,2.9597,2.9604,2.961,2.9615,2.9621,2.9626,2.9628,2.9633,2.9636,2.9641,2.9645,2.965,2.9654,2.9658,2.966,2.966,2.9661,2.9661,2.966,2.9658,2.9657,2.9655,2.9661,2.9661,2.9661,2.9661,2.9661,2.9603,2.9607,2.9613,2.9619,2.9623,2.9627,2.9631,2.9634,2.9639,2.9644,2.9645,2.965,2.9653,2.9658,2.966,2.9662,2.9662,2.9662,2.9662,2.9662,2.9661,2.9658,2.9663,2.9663,2.9663,2.9663,2.9663,0,2.9612,2.9615,2.9621,2.9628,2.9631,2.9632,2.9636,2.9639,2.9643,2.9647,2.965,2.9654,2.9657,2.9659,2.9662,2.9663,2.9663,2.9663,2.9663,2.9663,2.9662,2.9661,2.9663,2.9663,2.9663,2.9663,2.9663,2.9663,2.9618,2.9625,2.9627,2.9634,2.9637,2.9642,2.9644,2.9646,2.9649,2.9653,2.9656,2.9657,2.9659,2.9661,2.9663,2.9664,2.9664,2.9664,2.9664,2.9663,2.9663,2.9663,2.9662,2.9664,2.9664,2.9664,2.9664,2.9664]}]]